This demonstration page uses our WeatherBlox Daily Observations layout. Learn more.

Left ArrowRight Arrow

Hourly Observations for April 28, 2022

Temp ( °F °C ) Dew Point ( °F °C ) Humidity (%) Winds ( mph kmh ) Pressure ( in mb ) Visibility ( mi km ) Precip ( " mm )
12:52 am 00:52 Mostly Cloudy 59 15 37 2.8 44 44 SSE 13 20 30.04 1017 10 16 0.00 0.00
1:52 am 01:52 Mostly Cloudy 58 14.4 36 2.2 44 44 S 10 17 30.05 1018 10 16 0.00 0.00
2:52 am 02:52 Cloudy 57 13.9 37 2.8 47 47 SSE 10 17 30.04 1017 10 16 0.00 0.00
3:52 am 03:52 Cloudy 58 14.4 37 2.8 46 46 SSE 10 17 30.03 1017 10 16 0.00 0.00
4:52 am 04:52 Mostly Cloudy 58 14.4 37 2.8 46 46 SSE 15 24 30.00 1016 10 16 0.00 0.00
5:52 am 05:52 Clear 57 13.9 38 3.3 49 49 SSE 13 20 30.00 1016 10 16 0.00 0.00
6:52 am 06:52 Cloudy 58 14.4 38 3.3 48 48 SSE 15 24 30.01 1016 10 16 0.00 0.00
7:52 am 07:52 Cloudy 58 14.4 39 3.9 50 50 SSE 14 22 30.01 1016 10 16 0.00 0.00
8:52 am 08:52 Partly Cloudy 61 16.1 41 5 48 48 SSE 12 19 30.02 1017 10 16 0.00 0.00
9:52 am 09:52 Cloudy 61 16.1 42 5.6 50 50 SSE 16 26 30.00 1016 10 16 0.00 0.00
10:52 am 10:52 Cloudy 59 15 46 7.8 62 62 SSE 15 24 30.01 1016 10 16 0.00 0.00
11:52 am 11:52 Cloudy 58 14.4 49 9.4 72 72 SSE 16 26 30.00 1016 10 16 0.00 0.00
12:05 pm 12:05 Cloudy with Nearby Thunderstorms 58 14.4 50 10 75 75 SSE 14 22 30.01 1016 10 16 0.00 0.00
12:22 pm 12:22 Cloudy with Light Rain 56 13.3 50 10 81 81 SE 13 20 30.01 1016 10 16 0.00 0.00
12:50 pm 12:50 Cloudy with Nearby Thunderstorms 55 13 52 11 88 88 SE 13 20 30.00 1016 8 13 0.00 0.00
12:52 pm 12:52 Cloudy with Nearby Thunderstorms 56 13.3 51 10.6 84 84 SE 15 24 29.99 1016 8 13 0.00 0.00
1:05 pm 13:05 Cloudy with Light Rain 57 13.9 52 11.1 83 83 SSE 9 15 30.00 1016 10 16 0.01 0.25
1:28 pm 13:28 Cloudy with Heavy Rain 55 12.8 50 10 83 83 WNW 12 19 30.06 1018 2 3 0.02 0.51
1:42 pm 13:42 Cloudy with Rain 54 12.2 51 10.6 90 90 Calm 30.04 1017 2 3 0.17 4.32
1:50 pm 13:50 Cloudy with Rain 54 12 52 11 94 94 E 3 6 30.04 1017 3 4 0.19 4.83
1:51 pm 13:51 Cloudy with Heavy Rain 54 12.2 51 10.6 90 90 E 3 6 30.03 1017 3 4 0.19 4.83
2:08 pm 14:08 Cloudy with Light Rain 54 12.2 52 11.1 93 93 E 8 13 30.03 1017 6 10 0.11 2.79
2:52 pm 14:52 Cloudy with Light Rain 54 12.2 51 10.6 90 90 E 10 17 30.00 1016 8 13 0.13 3.30
3:52 pm 15:52 Cloudy 54 12.2 51 10.6 90 90 ESE 9 15 29.98 1015 10 16 0.01 0.25
4:17 pm 16:17 Cloudy 56 13.3 52 11.1 87 87 ESE 14 22 29.98 1015 10 16 0.00 0.00
4:52 pm 16:52 Mostly Cloudy 59 15 53 11.7 81 81 SE 15 24 29.94 1014 10 16 0.00 0.00
5:07 pm 17:07 Partly Cloudy 59 15 53 11.7 81 81 SE 13 20 29.94 1014 10 16 0.00 0.00
5:52 pm 17:52 Cloudy 61 16.1 52 11.1 72 72 SE 13 20 29.92 1013 10 16 0.00 0.00
6:52 pm 18:52 Mostly Cloudy 60 15.6 51 10.6 72 72 SE 10 17 29.91 1013 10 16 0.00 0.00
7:52 pm 19:52 Cloudy 60 15.6 50 10 70 70 SSE 14 22 29.90 1013 10 16 0.00 0.00
8:52 pm 20:52 Mostly Cloudy 59 15 51 10.6 75 75 SSE 14 22 29.90 1012 10 16 0.00 0.00
9:52 pm 21:52 Cloudy 59 15 50 10 72 72 SSE 12 19 29.91 1013 10 16 0.00 0.00
10:52 pm 22:52 Mostly Cloudy 59 15 51 10.6 75 75 SE 12 19 29.89 1012 10 16 0.00 0.00
11:52 pm 23:52 Cloudy 60 15.6 49 9.4 67 67 SSE 13 20 29.88 1012 10 16 0.00 0.00

Powered by AerisWeather